Time,TemperatureF,DewpointF,PressureIn,WindDirection,WindDirectionDegrees,WindSpeedMPH,WindSpeedGustMPH,Humidity,HourlyPrecipIn,Conditions,Clouds,dailyrainin,SoftwareType,DateUTC
2013-05-01 00:05:00,63.9,60.9,29.84,SSW,202,0.0,-999.0,90,-99.99,,,0.00,Acu-Link.com,2013-05-01 04:05:00,
2013-05-01 00:20:00,63.9,63.3,29.85,SSW,202,0.0,-999.0,98,-99.99,,,0.00,Acu-Link.com,2013-05-01 04:20:00,
2013-05-01 00:36:00,63.5,62.9,29.85,SSW,202,0.0,-999.0,98,-99.99,,,0.00,Acu-Link.com,2013-05-01 04:36:00,
2013-05-01 00:51:00,63.1,62.5,29.85,SSW,202,0.0,-999.0,98,-99.99,,,0.00,Acu-Link.com,2013-05-01 04:51:00,
2013-05-01 01:06:00,62.6,62.0,29.85,SSW,202,0.0,-999.0,98,-99.99,,,0.00,Acu-Link.com,2013-05-01 05:06:00,
2013-05-01 01:21:00,62.1,61.5,29.85,SSW,202,0.0,-999.0,98,-99.99,,,0.00,Acu-Link.com,2013-05-01 05:21:00,
2013-05-01 01:36:00,61.2,60.6,29.86,SSW,202,0.0,-999.0,98,-99.99,,,0.00,Acu-Link.com,2013-05-01 05:36:00,
2013-05-01 01:52:00,60.6,60.0,29.86,SSW,202,0.0,-999.0,98,-99.99,,,0.00,Acu-Link.com,2013-05-01 05:52:00,
2013-05-01 02:07:00,60.3,59.7,29.86,SSW,202,0.0,-999.0,98,-99.99,,,0.00,Acu-Link.com,2013-05-01 06:07:00,
2013-05-01 02:22:00,59.9,59.3,29.86,SSW,202,0.0,-999.0,98,-99.99,,,0.00,Acu-Link.com,2013-05-01 06:22:00,
2013-05-01 02:38:00,59.7,59.1,29.85,SSW,202,0.0,-999.0,98,-99.99,,,0.00,Acu-Link.com,2013-05-01 06:38:00,
2013-05-01 02:53:00,59.0,58.4,29.86,SSW,202,0.0,-999.0,98,-99.99,,,0.00,Acu-Link.com,2013-05-01 06:53:00,
2013-05-01 03:08:00,59.0,58.4,29.86,ESE,112,0.0,-999.0,98,-99.99,,,0.00,Acu-Link.com,2013-05-01 07:08:00,
2013-05-01 03:24:00,58.8,58.2,29.86,SSE,157,0.0,-999.0,98,-99.99,,,0.00,Acu-Link.com,2013-05-01 07:24:00,
2013-05-01 03:39:00,58.6,58.0,29.87,ENE,67,0.0,-999.0,98,-99.99,,,0.00,Acu-Link.com,2013-05-01 07:39:00,
2013-05-01 03:54:00,59.0,58.4,29.87,SSE,157,0.0,-999.0,98,-99.99,,,0.00,Acu-Link.com,2013-05-01 07:54:00,
2013-05-01 04:10:00,58.8,58.2,29.87,SSE,157,0.0,-999.0,98,-99.99,,,0.00,Acu-Link.com,2013-05-01 08:10:00,
2013-05-01 04:25:00,58.6,58.0,29.87,SSE,157,0.0,-999.0,98,-99.99,,,0.00,Acu-Link.com,2013-05-01 08:25:00,
2013-05-01 04:40:00,58.5,57.9,29.87,East,90,0.0,-999.0,98,-99.99,,,0.00,Acu-Link.com,2013-05-01 08:40:00,
2013-05-01 04:55:00,57.7,57.1,29.87,East,90,0.0,-999.0,98,-99.99,,,0.00,Acu-Link.com,2013-05-01 08:55:00,
2013-05-01 05:10:00,57.2,56.6,29.86,East,90,0.0,-999.0,98,-99.99,,,0.00,Acu-Link.com,2013-05-01 09:10:00,
2013-05-01 05:25:00,57.0,56.4,29.86,East,90,0.0,-999.0,98,-99.99,,,0.00,Acu-Link.com,2013-05-01 09:25:00,
2013-05-01 05:41:00,56.7,56.1,29.87,East,90,0.0,-999.0,98,-99.99,,,0.00,Acu-Link.com,2013-05-01 09:41:00,
2013-05-01 05:56:00,56.5,55.9,29.88,East,90,0.0,-999.0,98,-99.99,,,0.00,Acu-Link.com,2013-05-01 09:56:00,
2013-05-01 06:11:00,56.1,55.5,29.89,NE,45,0.0,-999.0,98,-99.99,,,0.00,Acu-Link.com,2013-05-01 10:11:00,
2013-05-01 06:27:00,55.9,55.3,29.90,NE,45,0.0,-999.0,98,-99.99,,,0.00,Acu-Link.com,2013-05-01 10:27:00,
2013-05-01 06:42:00,55.9,55.3,29.90,NE,45,0.0,-999.0,98,-99.99,,,0.00,Acu-Link.com,2013-05-01 10:42:00,
2013-05-01 06:57:00,56.1,55.5,29.90,NE,45,0.0,-999.0,98,-99.99,,,0.00,Acu-Link.com,2013-05-01 10:57:00,
2013-05-01 07:12:00,56.1,55.5,29.91,NE,45,0.0,-999.0,98,-99.99,,,0.00,Acu-Link.com,2013-05-01 11:12:00,
2013-05-01 07:27:00,57.4,56.8,29.92,NE,45,0.0,-999.0,98,-99.99,,,0.00,Acu-Link.com,2013-05-01 11:27:00,
2013-05-01 07:43:00,58.8,58.2,29.92,East,90,0.0,-999.0,98,-99.99,,,0.00,Acu-Link.com,2013-05-01 11:43:00,
2013-05-01 07:58:00,60.4,59.8,29.93,ESE,112,2.7,-999.0,98,-99.99,,,0.00,Acu-Link.com,2013-05-01 11:58:00,
2013-05-01 08:13:00,61.7,58.4,29.92,ESE,112,3.2,-999.0,89,-99.99,,,0.00,Acu-Link.com,2013-05-01 12:13:00,
2013-05-01 08:29:00,62.6,58.7,29.93,NE,45,0.0,-999.0,87,-99.99,,,0.00,Acu-Link.com,2013-05-01 12:29:00,
2013-05-01 08:44:00,64.0,58.7,29.93,SE,135,1.7,-999.0,83,-99.99,,,0.00,Acu-Link.com,2013-05-01 12:44:00,
2013-05-01 08:59:00,64.9,57.9,29.94,SSE,157,4.7,-999.0,78,-99.99,,,0.00,Acu-Link.com,2013-05-01 12:59:00,
2013-05-01 09:15:00,65.7,58.6,29.94,ESE,112,2.7,-999.0,78,-99.99,,,0.00,Acu-Link.com,2013-05-01 13:15:00,
2013-05-01 09:30:00,66.2,58.0,29.94,ESE,112,2.7,-999.0,75,-99.99,,,0.00,Acu-Link.com,2013-05-01 13:30:00,
2013-05-01 09:45:00,67.6,58.2,29.94,ESE,112,2.2,-999.0,72,-99.99,,,0.00,Acu-Link.com,2013-05-01 13:45:00,
2013-05-01 10:00:00,68.2,59.2,29.95,NNE,22,3.7,-999.0,73,-99.99,,,0.00,Acu-Link.com,2013-05-01 14:00:00,
2013-05-01 10:15:00,68.4,58.2,29.96,North,0,4.2,-999.0,70,-99.99,,,0.00,Acu-Link.com,2013-05-01 14:15:00,
2013-05-01 10:30:00,69.8,60.0,29.97,SE,135,2.7,-999.0,71,-99.99,,,0.00,Acu-Link.com,2013-05-01 14:30:00,
2013-05-01 10:46:00,70.5,59.4,29.97,North,0,3.2,-999.0,68,-99.99,,,0.00,Acu-Link.com,2013-05-01 14:46:00,
2013-05-01 11:01:00,71.6,58.8,29.96,NNE,22,4.7,-999.0,64,-99.99,,,0.00,Acu-Link.com,2013-05-01 15:01:00,
2013-05-01 11:16:00,73.2,58.9,29.96,WNW,292,4.2,-999.0,61,-99.99,,,0.00,Acu-Link.com,2013-05-01 15:16:00,
2013-05-01 11:32:00,73.8,58.6,29.94,NNE,22,4.2,-999.0,59,-99.99,,,0.00,Acu-Link.com,2013-05-01 15:32:00,
2013-05-01 11:47:00,72.9,58.6,29.94,NE,45,4.7,-999.0,61,-99.99,,,0.00,Acu-Link.com,2013-05-01 15:47:00,
2013-05-01 12:02:00,75.0,57.7,29.94,ESE,112,3.7,-999.0,55,-99.99,,,0.00,Acu-Link.com,2013-05-01 16:02:00,
2013-05-01 12:17:00,76.5,57.5,29.93,NNE,22,4.2,-999.0,52,-99.99,,,0.00,Acu-Link.com,2013-05-01 16:17:00,
2013-05-01 12:32:00,78.1,57.4,29.93,NNE,22,3.2,-999.0,49,-99.99,,,0.00,Acu-Link.com,2013-05-01 16:32:00,
2013-05-01 12:47:00,79.0,58.2,29.91,East,90,6.3,-999.0,49,-99.99,,,0.00,Acu-Link.com,2013-05-01 16:47:00,
2013-05-01 13:03:00,80.4,57.7,29.91,ESE,112,4.2,-999.0,46,-99.99,,,0.00,Acu-Link.com,2013-05-01 17:03:00,
2013-05-01 13:18:00,81.0,57.0,29.91,NE,45,5.3,-999.0,44,-99.99,,,0.00,Acu-Link.com,2013-05-01 17:18:00,
2013-05-01 13:33:00,82.8,58.0,29.91,ENE,67,3.7,-999.0,43,-99.99,,,0.00,Acu-Link.com,2013-05-01 17:33:00,
2013-05-01 13:48:00,82.2,57.4,29.91,East,90,3.7,-999.0,43,-99.99,,,0.00,Acu-Link.com,2013-05-01 17:48:00,
2013-05-01 14:03:00,82.6,57.2,29.90,NNE,22,5.8,-999.0,42,-99.99,,,0.00,Acu-Link.com,2013-05-01 18:03:00,
2013-05-01 14:18:00,81.1,57.1,29.91,NNE,22,4.2,-999.0,44,-99.99,,,0.00,Acu-Link.com,2013-05-01 18:18:00,
2013-05-01 14:34:00,83.1,56.9,29.90,East,90,2.2,-999.0,41,-99.99,,,0.00,Acu-Link.com,2013-05-01 18:34:00,
2013-05-01 14:49:00,84.7,58.4,29.90,East,90,7.8,-999.0,41,-99.99,,,0.00,Acu-Link.com,2013-05-01 18:49:00,
2013-05-01 15:04:00,82.4,58.3,29.89,NE,45,3.7,-999.0,44,-99.99,,,0.00,Acu-Link.com,2013-05-01 19:04:00,
2013-05-01 15:19:00,82.0,55.3,29.90,ESE,112,3.2,-999.0,40,-99.99,,,0.00,Acu-Link.com,2013-05-01 19:19:00,
2013-05-01 15:35:00,81.7,57.0,29.89,NNE,22,5.8,-999.0,43,-99.99,,,0.00,Acu-Link.com,2013-05-01 19:35:00,
2013-05-01 15:50:00,82.2,57.4,29.89,NNE,22,6.3,-999.0,43,-99.99,,,0.00,Acu-Link.com,2013-05-01 19:50:00,
2013-05-01 16:05:00,81.1,57.1,29.89,ESE,112,2.2,-999.0,44,-99.99,,,0.00,Acu-Link.com,2013-05-01 20:05:00,
2013-05-01 16:21:00,80.1,56.2,29.88,East,90,2.2,-999.0,44,-99.99,,,0.00,Acu-Link.com,2013-05-01 20:21:00,
2013-05-01 16:36:00,79.9,56.0,29.87,WNW,292,2.7,-999.0,44,-99.99,,,0.00,Acu-Link.com,2013-05-01 20:36:00,
2013-05-01 16:51:00,79.0,54.6,29.87,ESE,112,2.7,-999.0,43,-99.99,,,0.00,Acu-Link.com,2013-05-01 20:51:00,
2013-05-01 17:06:00,78.4,55.9,29.88,NE,45,1.7,-999.0,46,-99.99,,,0.00,Acu-Link.com,2013-05-01 21:06:00,
2013-05-01 17:22:00,77.4,55.6,29.87,North,0,4.2,-999.0,47,-99.99,,,0.00,Acu-Link.com,2013-05-01 21:22:00,
2013-05-01 17:37:00,77.0,55.2,29.87,NE,45,4.7,-999.0,47,-99.99,,,0.00,Acu-Link.com,2013-05-01 21:37:00,
2013-05-01 17:52:00,76.5,55.3,29.87,ENE,67,7.8,-999.0,48,-99.99,,,0.00,Acu-Link.com,2013-05-01 21:52:00,
2013-05-01 18:08:00,75.7,55.2,29.87,SE,135,2.7,-999.0,49,-99.99,,,0.00,Acu-Link.com,2013-05-01 22:08:00,
2013-05-01 18:23:00,75.6,54.5,29.87,NNE,22,3.2,-999.0,48,-99.99,,,0.00,Acu-Link.com,2013-05-01 22:23:00,
2013-05-01 18:38:00,75.4,54.9,29.87,NNE,22,2.7,-999.0,49,-99.99,,,0.00,Acu-Link.com,2013-05-01 22:38:00,
2013-05-01 18:53:00,74.8,54.3,29.88,NE,45,2.2,-999.0,49,-99.99,,,0.00,Acu-Link.com,2013-05-01 22:53:00,
2013-05-01 19:09:00,73.9,54.1,29.87,ESE,112,1.7,-999.0,50,-99.99,,,0.00,Acu-Link.com,2013-05-01 23:09:00,
2013-05-01 19:24:00,73.2,52.9,29.87,East,90,3.7,-999.0,49,-99.99,,,0.00,Acu-Link.com,2013-05-01 23:24:00,
2013-05-01 19:39:00,72.3,52.6,29.87,ESE,112,2.7,-999.0,50,-99.99,,,0.00,Acu-Link.com,2013-05-01 23:39:00,
2013-05-01 19:55:00,71.6,52.5,29.87,East,90,2.2,-999.0,51,-99.99,,,0.00,Acu-Link.com,2013-05-01 23:55:00,
2013-05-01 20:10:00,70.5,52.5,29.88,East,90,1.7,-999.0,53,-99.99,,,0.00,Acu-Link.com,2013-05-02 00:10:00,
2013-05-01 20:25:00,69.8,52.9,29.89,East,90,1.1,-999.0,55,-99.99,,,0.00,Acu-Link.com,2013-05-02 00:25:00,
2013-05-01 20:41:00,68.9,52.5,29.89,ESE,112,2.2,-999.0,56,-99.99,,,0.00,Acu-Link.com,2013-05-02 00:41:00,
2013-05-01 20:56:00,68.2,52.9,29.88,East,90,1.7,-999.0,58,-99.99,,,0.00,Acu-Link.com,2013-05-02 00:56:00,
2013-05-01 21:11:00,67.8,52.5,29.90,ESE,112,2.7,-999.0,58,-99.99,,,0.00,Acu-Link.com,2013-05-02 01:11:00,
2013-05-01 21:27:00,67.5,52.7,29.91,ENE,67,1.7,-999.0,59,-99.99,,,0.00,Acu-Link.com,2013-05-02 01:27:00,
2013-05-01 21:42:00,66.9,52.6,29.91,NNE,22,1.7,-999.0,60,-99.99,,,0.00,Acu-Link.com,2013-05-02 01:42:00,
2013-05-01 21:57:00,66.2,52.8,29.91,East,90,1.7,-999.0,62,-99.99,,,0.00,Acu-Link.com,2013-05-02 01:57:00,
2013-05-01 22:13:00,65.7,52.3,29.92,NE,45,1.7,-999.0,62,-99.99,,,0.00,Acu-Link.com,2013-05-02 02:13:00,
2013-05-01 22:28:00,64.9,52.8,29.92,SE,135,1.7,-999.0,65,-99.99,,,0.00,Acu-Link.com,2013-05-02 02:28:00,
2013-05-01 22:43:00,64.6,52.6,29.92,ENE,67,1.7,-999.0,65,-99.99,,,0.00,Acu-Link.com,2013-05-02 02:43:00,
2013-05-01 22:58:00,63.9,52.7,29.93,SE,135,0.0,-999.0,67,-99.99,,,0.00,Acu-Link.com,2013-05-02 02:58:00,
2013-05-01 23:13:00,63.3,52.6,29.92,ENE,67,0.0,-999.0,68,-99.99,,,0.00,Acu-Link.com,2013-05-02 03:13:00,
2013-05-01 23:29:00,62.4,52.5,29.92,SSE,157,0.0,-999.0,70,-99.99,,,0.00,Acu-Link.com,2013-05-02 03:29:00,
2013-05-01 23:44:00,61.7,52.2,29.92,SSE,157,0.0,-999.0,71,-99.99,,,0.00,Acu-Link.com,2013-05-02 03:44:00,